Weather History for Campo, CA

Change the Weather History Date:

Saturday, May 12, 2012

  Actual Average Record
Temperature  
Mean Temperature 59 °F 60 °F  
Max Temperature 81 °F 79 °F 94 °F (1988)
Min Temperature 37 °F 42 °F 27 °F (1963)
Degree Days  
Heating Degree Days 6 5  
Month to date heating degree days 92 75  
Since 1 July heating degree days 3201 2843  
Cooling Degree Days 0 1  
Month to date cooling degree days 1 7  
Year to date cooling degree days 7 10  
Growing Degree Days 8 (Base 50)    
Moisture  
Dew Point 38 °F    
Average Humidity 50    
Maximum Humidity 89    
Minimum Humidity 10    
Precipitation  
Precipitation 0.00 in 0.01 in 0.68 in (1957)
Month to date precipitation 0.00 0.12  
Year to date precipitation 6.05 9.98  
Since 1 July precipitation 11.29 15.56  
Snow  
Snow 0.00 in - - ()
Month to date snowfall 0.0  
Year to date snowfall 0.0  
Since 1 July snowfall 0.0  
Snow Depth 0.00 in    
Sea Level Pressure  
Sea Level Pressure 29.97 in    
Wind  
Wind Speed 9 mph (SSE)    
Max Wind Speed 21 mph    
Max Gust Speed 24 mph    
T = Trace of Precipitation, MM = Missing Value Source: NWS Daily Summary

Daily Weather History Graph

Daily Weather History Graph

Search for Another Location

Airport:

Trip Planner

Search our weather history database for the weather conditions in past years. The results will help you decide how hot, cold, wet, or windy it might be!

Date:

Astronomy

May. 12, 2012 Rise Set
Actual Time 5:49 AM PDT 7:35 PM PDT
Civil Twilight 5:22 AM PDT 8:02 PM PDT
Nautical Twilight 4:49 AM PDT 8:35 PM PDT
Astronomical Twilight 4:15 AM PDT 9:09 PM PDT
Moon 12:58 AM PDT (5/12) 12:24 PM PDT (5/12)
Length of Visible Light 14h 40m
Length of Day
13h 46m
Waning Gibbous, 51% of the Moon is Illuminated
May 12
Waning Gibbous
May 12
Last Quarter
May 20
New
May 28
First Quarter
Jun 4
Full

Hourly Weather History & Observations

Time (PDT) Temp. Windchill Dew Point Humidity Pressure Visibility Wind Dir Wind Speed Gust Speed Precip Events Conditions
12:52 AM 42.1 °F 39.2 °F 39.0 °F 89% 29.95 in - NE 4.6 mph - N/A   Unknown
1:52 AM 42.1 °F 38.4 °F 37.9 °F 85% 29.93 in - NE 5.8 mph - N/A   Unknown
2:52 AM 39.9 °F 35.1 °F 33.1 °F 77% 29.94 in - ENE 6.9 mph - N/A   Unknown
3:52 AM 37.9 °F 33.5 °F 30.0 °F 73% 29.94 in - NE 5.8 mph - N/A   Unknown
4:52 AM 39.9 °F 35.8 °F 28.0 °F 63% 29.94 in - NE 5.8 mph - N/A   Unknown
5:52 AM 37.9 °F 33.5 °F 27.0 °F 65% 29.95 in - NE 5.8 mph - N/A   Unknown
6:52 AM 45.0 °F 41.8 °F 27.0 °F 49% 29.97 in - NE 5.8 mph - N/A   Unknown
7:52 AM 57.9 °F - 33.1 °F 39% 29.97 in - Calm Calm - N/A   Unknown
8:52 AM 69.1 °F - 10.0 °F 10% 29.97 in - Calm Calm - N/A   Unknown
9:52 AM 73.0 °F - 19.9 °F 14% 29.97 in - SW 4.6 mph - N/A   Unknown
10:52 AM 75.9 °F - 24.1 °F 15% 29.97 in - SW 10.4 mph - N/A   Unknown
11:52 AM 78.1 °F - 32.0 °F 19% 29.96 in - SSW 13.8 mph - N/A   Unknown
12:52 PM 79.0 °F - 37.9 °F 23% 29.96 in - SSW 15.0 mph - N/A   Unknown
1:52 PM 79.0 °F - 44.1 °F 29% 29.96 in - SW 16.1 mph - N/A   Unknown
2:52 PM 80.1 °F - 48.0 °F 32% 29.95 in - SSW 16.1 mph - N/A   Unknown
3:52 PM 79.0 °F - 50.0 °F 36% 29.94 in - SSW 18.4 mph - N/A   Unknown
4:52 PM 75.9 °F - 52.0 °F 43% 29.95 in - SW 19.6 mph 24.2 mph N/A   Unknown
5:52 PM 72.0 °F - 51.1 °F 48% 29.97 in - SW 13.8 mph - N/A   Unknown
6:52 PM 66.0 °F - 52.0 °F 60% 29.98 in - SSW 9.2 mph - N/A   Unknown
7:52 PM 62.1 °F - 52.0 °F 70% 29.98 in - South 4.6 mph - N/A   Unknown
8:52 PM 53.1 °F - 48.0 °F 83% 29.99 in - NNE 3.5 mph - N/A   Unknown
9:52 PM 53.1 °F - 48.0 °F 83% 30.01 in - NE 5.8 mph - N/A   Unknown
10:52 PM 51.1 °F - 46.9 °F 86% 30.01 in - Calm Calm - N/A   Unknown
11:52 PM 48.0 °F - 45.0 °F 89% 30.01 in - NE 4.6 mph - N/A   Unknown